Content
SEND FEEDBACK

Daily
Averages
Monthly
Summary
United States of America

ANN ARBOR, MICHIGAN


Home > North America > United States > Michigan
Elevation: 759 feet     Latitude: 42 17N     Longitude: 083 43W

WEATHER
 
SELECT A DAY
Number of Records: 203,168;   Date Range: 1/1/95 - 7/22/14
 
SHARE

PRINT THIS DATA

[ ← Previous Day ]
WEATHER ALMANAC - NOVEMBER 9, 2013
[ Next Day → ]
[ °C ]   °F
Weather ElementAverageHighLow
Temperature48.1 °F55.9 °F (12:53 pm)36 °F (1:53 am)
Dewpoint33.9 °F39 °F (1:53 pm)28.9 °F (4:53 am)
Humidity58.9 %79 % (1:53 am)47 % (12:53 pm)
Barometer29.93 in30.15 in (1:53 am)29.81 in (2:53 pm)
Wind Speed13.9 mph23 mph (3:53 pm)
Wind Gust33.4 mph (1:53 pm)
Weather ElementAverage
Visibility10 mi
Wind DirectionWSW (232.1 °)

Weather ElementTotal
Precipitation---
Heating Degree Days19.1 (Base 65)
Averaged from 24 records on November 9, 2013
WEATHER CONDITIONS BREAKOUT
WIND DIRECTION BREAKOUT
WEATHER BY HOUR - NOVEMBER 9, 2013
[ °C ]   °F
Local TimeTemperatureDewpointHumidityBarometerVisibilityWind DirectionWind SpeedGust SpeedPrecipitationEventsConditions
1:53 AM36.0 °F30.0 °F79 %30.15 in10.0 miSouth (190°)4.6 mphClear
2:53 AM37.0 °F30.0 °F76 %30.12 in10.0 miSouth (170°)4.6 mphPartly Cloudy
3:53 AM37.9 °F30.0 °F73 %30.08 in10.0 miSouth (170°)5.8 mphClear
4:53 AM41.0 °F28.9 °F62 %30.05 in10.0 miSouth (180°)9.2 mphPartly Cloudy
5:53 AM42.1 °F28.9 °F60 %30.02 in10.0 miSouth (190°)11.5 mphMostly Cloudy
6:53 AM41.0 °F28.9 °F62 %30.00 in10.0 miSSW (210°)11.5 mphClear
7:53 AM41.0 °F30.0 °F65 %29.99 in10.0 miSSW (210°)11.5 mphClear
8:33 AM42.8 °F30.2 °F61 %29.94 in10.0 miSSW (210°)13.8 mphPartly Cloudy
8:53 AM44.1 °F30.0 °F58 %29.96 in10.0 miSSW (210°)17.3 mph25.3 mphClear
9:53 AM48.0 °F30.0 °F50 %29.92 in10.0 miSW (220°)17.3 mph26.5 mphClear
10:53 AM51.1 °F32.0 °F48 %29.88 in10.0 miSW (220°)16.1 mph24.2 mphClear
11:53 AM53.1 °F34.0 °F48 %29.85 in10.0 miSW (220°)13.8 mph26.5 mphClear
12:53 PM55.9 °F36.0 °F47 %29.82 in10.0 miWSW (240°)15.0 mphScattered Clouds
1:53 PM55.9 °F39.0 °F53 %29.82 in10.0 miWSW (250°)19.6 mph33.4 mphOvercast
2:53 PM55.9 °F39.0 °F53 %29.81 in10.0 miWSW (250°)20.7 mph26.5 mphOvercast
3:53 PM55.9 °F39.0 °F53 %29.82 in10.0 miWSW (250°)23.0 mph28.8 mphOvercast
4:53 PM55.0 °F37.0 °F51 %29.86 in10.0 miWest (270°)21.9 mph32.2 mphOvercast
5:53 PM53.1 °F37.9 °F57 %29.88 in10.0 miWest (270°)12.7 mph19.6 mphOvercast
6:53 PM53.1 °F37.9 °F57 %29.88 in10.0 miWest (260°)15.0 mph23.0 mphOvercast
7:53 PM53.1 °F37.9 °F57 %29.88 in10.0 miWest (270°)15.0 mph23.0 mphOvercast
8:53 PM52.0 °F37.9 °F59 %29.89 in10.0 miWest (280°)16.1 mph27.6 mphOvercast
9:53 PM50.0 °F37.0 °F61 %29.91 in10.0 miWest (280°)15.0 mphMostly Cloudy
10:53 PM50.0 °F36.0 °F59 %29.90 in10.0 miWest (270°)13.8 mphOvercast
11:53 PM48.9 °F37.0 °F64 %29.91 in10.0 miWest (280°)8.1 mphOvercast
Hourly data recorded from KARB, located miles away from Ann Arbor, Michigan







STORIES FROM OUR PARTNERS